Location: Elk Horn Observatory
(36.6768°N, 80.8309°W)
Time: 15:53:32
(UTC-05:00)

Envisat - Pass Details

Date: 25 January 2019
Orbit: 764 x 766 km, 98.2° (Epoch: 15 February)

Event Time Altitude Azimuth Distance (km) Brightness Sun altitude
Rises 19:53:31 0° 190° (S) 3,215 6.4 -26.5°
Reaches altitude 10° 19:56:02 10° 201° (SSW) 2,293 5.7 -27.0°
Maximum altitude 20:00:31 32° 263° (W) 1,298 4.7 -27.9°
Drops below altitude 10° 20:05:03 10° 326° (NW) 2,306 5.8 -28.8°
Sets 20:07:36 0° 336° (NNW) 3,237 6.5 -29.3°
